International Skating Union - Official Site

Essent ISU World Cup Inzell
March 7-9, 2014

Draw | Lap Times | Index | World Cup

Referee: Karl  SKOOG  (SWE)
Starter: Harrie  JANSSEN  (NED)
StartTime: EndTime: Air Temp: Ice Temp: Humidity:
14:45 15:29 11℃ -6℃ 44%
Result 3000m Ladies Division A
Rankings as of Mar 8 2014 3:40PM
Rank: No.: Name: Nation: Time: Behind: Points:
1 52 Ireen  Wüst NED NED 4:01.52200m - 19.51 - (19.5)
600m - 49.37 - (29.8)
1000m - 1:19.99 - (30.6)
1400m - 1:51.09 - (31.1)
1800m - 2:22.51 - (31.4)
2200m - 2:54.67 - (32.1)
2600m - 3:27.84 - (33.1)
3000m - 4:01.52 - (33.6)
100
2 5 Martina  Sábliková CZE CZE 4:04.00200m - 20.62 - (20.6)
600m - 52.31 - (31.6)
1000m - 1:24.14 - (31.8)
1400m - 1:56.30 - (32.1)
1800m - 2:27.92 - (31.6)
2200m - 2:59.91 - (31.9)
2600m - 3:31.82 - (31.9)
3000m - 4:04.00 - (32.1)
2.48 80
3 43 Yvonne  Nauta NED NED 4:04.44200m - 20.08 - (20.0)
600m - 51.58 - (31.5)
1000m - 1:23.40 - (31.8)
1400m - 1:55.12 - (31.7)
1800m - 2:26.99 - (31.8)
2200m - 2:59.19 - (32.2)
2600m - 3:31.65 - (32.4)
3000m - 4:04.44 - (32.7)
2.92 70
4 64 Olga  Graf RUS RUS 4:04.87200m - 21.05 - (21.0)
600m - 51.72 - (30.6)
1000m - 1:23.21 - (31.4)
1400m - 1:55.29 - (32.0)
1800m - 2:27.63 - (32.3)
2200m - 2:59.80 - (32.1)
2600m - 3:32.10 - (32.3)
3000m - 4:04.87 - (32.7)
3.35 60
5 51 Jorien  Voorhuis NED NED 4:06.34200m - 19.89 - (19.8)
600m - 51.14 - (31.2)
1000m - 1:23.64 - (32.5)
1400m - 1:55.72 - (32.0)
1800m - 2:28.16 - (32.4)
2200m - 3:00.72 - (32.5)
2600m - 3:33.72 - (33.0)
3000m - 4:06.34 - (32.6)
4.82 50
6 55 Ida  Njåtun NOR NOR 4:06.43200m - 19.96 - (19.9)
600m - 50.54 - (30.5)
1000m - 1:22.29 - (31.7)
1400m - 1:54.40 - (32.1)
1800m - 2:26.55 - (32.1)
2200m - 2:59.24 - (32.6)
2600m - 3:32.52 - (33.2)
3000m - 4:06.43 - (33.9)
4.91 45
7 17 Claudia  Pechstein GER GER 4:07.11200m - 20.60 - (20.6)
600m - 52.43 - (31.8)
1000m - 1:24.72 - (32.2)
1400m - 1:56.79 - (32.0)
1800m - 2:29.09 - (32.3)
2200m - 3:01.71 - (32.6)
2600m - 3:34.58 - (32.8)
3000m - 4:07.11 - (32.5)
5.59 40
8 56 Katarzyna  Bachleda-Curus POL POL 4:07.54200m - 19.67 - (19.6)
600m - 50.31 - (30.6)
1000m - 1:21.71 - (31.4)
1400m - 1:53.82 - (32.1)
1800m - 2:26.19 - (32.3)
2200m - 2:59.44 - (33.2)
2600m - 3:33.16 - (33.7)
3000m - 4:07.54 - (34.3)
6.02 35
9 25 Shiho  Ishizawa JPN JPN 4:10.21200m - 20.45 - (20.4)
600m - 52.51 - (32.0)
1000m - 1:25.63 - (33.1)
1400m - 1:58.47 - (32.8)
1800m - 2:31.59 - (33.1)
2200m - 3:04.61 - (33.0)
2600m - 3:37.39 - (32.7)
3000m - 4:10.21 - (32.8)
8.69 30
10 15 Bente  Kraus GER GER 4:10.66200m - 20.95 - (20.9)
600m - 52.33 - (31.3)
1000m - 1:24.07 - (31.7)
1400m - 1:56.13 - (32.0)
1800m - 2:28.83 - (32.7)
2200m - 3:02.00 - (33.1)
2600m - 3:36.20 - (34.2)
3000m - 4:10.66 - (34.4)
9.14 25
11 59 Luiza  Zlotkowska POL POL 4:11.05200m - 20.42 - (20.4)
600m - 52.67 - (32.2)
1000m - 1:25.36 - (32.6)
1400m - 1:57.69 - (32.3)
1800m - 2:30.76 - (33.0)
2200m - 3:03.64 - (32.8)
2600m - 3:37.36 - (33.7)
3000m - 4:11.05 - (33.6)
9.53 21
12 2 Ivanie  Blondin CAN CAN 4:11.91200m - 20.52 - (20.5)
600m - 52.34 - (31.8)
1000m - 1:24.69 - (32.3)
1400m - 1:56.81 - (32.1)
1800m - 2:29.40 - (32.5)
2200m - 3:02.55 - (33.1)
2600m - 3:36.52 - (33.9)
3000m - 4:11.91 - (35.3)
10.39 18
13 27 Ayaka  Kikuchi JPN JPN 4:12.58200m - 20.00 - (20.0)
600m - 50.99 - (30.9)
1000m - 1:22.76 - (31.7)
1400m - 1:55.28 - (32.5)
1800m - 2:28.56 - (33.2)
2200m - 3:02.73 - (34.1)
2600m - 3:37.55 - (34.8)
3000m - 4:12.58 - (35.0)
11.06 16
14 57 Natalia  Czerwonka POL POL 4:12.99200m - 20.00 - (20.0)
600m - 51.36 - (31.3)
1000m - 1:23.35 - (31.9)
1400m - 1:55.80 - (32.4)
1800m - 2:28.64 - (32.8)
2200m - 3:02.41 - (33.7)
2600m - 3:37.06 - (34.6)
3000m - 4:12.99 - (35.9)
11.47 14
15 33 Nana  Takagi JPN JPN 4:13.89200m - 20.20 - (20.2)
600m - 52.55 - (32.3)
1000m - 1:25.09 - (32.5)
1400m - 1:58.22 - (33.1)
1800m - 2:31.23 - (33.0)
2200m - 3:04.92 - (33.6)
2600m - 3:38.97 - (34.0)
3000m - 4:13.89 - (34.9)
12.37 12
16 24 Masako  Hozumi JPN JPN 4:14.51200m - 20.68 - (20.6)
600m - 52.34 - (31.6)
1000m - 1:24.39 - (32.0)
1400m - 1:57.08 - (32.6)
1800m - 2:30.33 - (33.2)
2200m - 3:04.35 - (34.0)
2600m - 3:38.91 - (34.5)
3000m - 4:14.51 - (35.6)
12.99 10